Regional Weather Roundup
Issued by NWS

Home | Current Version | Previous Version | Text Only | Print | Product List | Glossary On
Versions: 1 2 3 4 5 6 7 8 9 10 11 12 13 14 15 16 17 18 19 20 21 22 23 24 25 26 27 28 29 30 31 32 33 34 35 36 37 38 39 40 41 42 43 44 45 46 47 48 49 50
000
ASUS44 KFWD 280515
RWRTX
NORTH TEXAS HOURLY WEATHER ROUNDUP
NATIONAL WEATHER SERVICE FORT WORTH TX
1200 AM CDT TUE MAR 28 2017

NOTE: "FAIR" INDICATES FEW OR NO CLOUDS BELOW 12,000 FEET WITH NO
SIGNIFICANT WEATHER AND/OR OBSTRUCTIONS TO VISIBILITY.

TXZ118-119-280600-
DALLAS/FORT WORTH METROPLEX

CITY           SKY/WX    TMP DP  RH WIND       PRES   REMARKS
DFW AIRPORT    CLEAR     62  55  77 NE5       29.88S
DALLAS LOVE    PTCLDY    63  55  75 E6        29.89S
FTW MEACHAM    CLEAR     64  53  67 E5        29.89R
DAL-EXECUTIVE  CLEAR     63  56  78 E5        29.89S
FTW-ALLIANCE   CLEAR     55  53  93 S3        29.89S
FTW-NAS-JRB    CLEAR     64  54  69 E3        29.89S
FTW-SPINKS     CLEAR     57  53  86 CALM      29.90S
ARLINGTON      CLEAR     58  54  86 CALM      29.89S
GRAND PRAIRIE  CLEAR     62  53  72 CALM      29.91S
ADDISON        CLEAR     62  55  76 NE6       29.91S
MESQUITE       PTCLDY    60  55  84 CALM      29.90S
LANCASTER      CLEAR     57  54  89 NE3       29.91R
$$

TXZ091>094-102>105-117-120-121-131>134-280600-
NORTH CENTRAL TEXAS

CITY           SKY/WX    TMP DP  RH WIND       PRES   REMARKS
SHRMAN/DENISON CLEAR     56  53  89 CALM      29.92F
GAINESVILLE    CLEAR     56  53  88 CALM      29.93F
BOWIE          CLEAR     56  54  93 CALM      29.90F
BRIDGEPORT     CLEAR     55  55 100 CALM      29.90F
DECATUR        CLEAR     58  54  85 NE5       29.89F
DENTON         CLEAR     56  55  97 N6        29.89F
MCKINNEY       CLEAR     55  54  96 N3        29.90S
BONHAM         CLEAR     54  52  94 CALM      29.92R
GREENVILLE     PTCLDY    55  54  94 CALM      29.91S
ROCKWALL         N/A     60  55  86 E3        29.90S
TERRELL        MOCLDY    60  56  86 NE3       29.91R
WAXAHACHIE     CLEAR     60  56  86 NE5       29.91S
CLEBURNE       CLOUDY    63  57  82 E9        29.90F
GRANBURY       MOCLDY    62  53  73 CALM      29.89F
$$

TXZ083>090-098>101-113>116-127>130-139>142-154-155-280600-
WESTERN NORTH TEXAS

CITY           SKY/WX    TMP DP  RH WIND       PRES   REMARKS
WICHITA FALLS  CLEAR     53  47  79 E10       29.89F
WF-KICKAPOO    CLEAR     57  49  74 E7        29.90F
VERNON         CLEAR     59  44  57 NE7       29.90S
ABILENE        CLEAR     60  50  69 SE12      29.86F
ABILENE-DYESS  CLEAR     62  49  61 S12       29.84F
GRAHAM         CLEAR     58  53  82 CALM      29.87R
BRECKENRIDGE   CLEAR     63  50  63 SE7       29.87S
CISCO          MOCLDY    61  52  72 SE9       29.88S
RANGER         PTCLDY    61  52  72 E7        29.89S
MINERAL WELLS  CLEAR     58  51  78 E6        29.87S
STEPHENVILLE   PTCLDY    63  52  67 E7        29.90S
COMANCHE       PTCLDY    62  56  81 SE6       29.88F
BROWNWOOD      MOCLDY    66  55  68 E8        29.86F
COLEMAN        CLEAR     64  52  66 E8        29.87S
$$

TXZ143>147-156>162-174-175-280600-
CENTRAL TEXAS

CITY           SKY/WX    TMP DP  RH WIND       PRES   REMARKS
WACO           PTCLDY    65  61  87 NE8       29.87R
WACO-MCGREGOR  PTCLDY    66  62  87 N7        29.87S
HILLSBORO      CLEAR     64  56  78 NE12      29.88S
CORSICANA      PTCLDY    64  59  83 NE7       29.89S
MEXIA          MOCLDY    67  61  83 NE5       29.87S
HEARNE         PTCLDY    71  68  90 SE6       29.88R
CAMERON        MOCLDY    71  67  87 SE3       29.86S
TEMPLE         MOCLDY    71  68  90 E7        29.87R
KILLEEN        MOCLDY    72  66  83 E6        29.86R
KILLEEN-SKYLRK PTCLDY    70  67  90 E6        29.87R
FORT HOOD      PTCLDY    69  66  90 E5        29.84R
GATESVILLE     PTCLDY    66  63  88 CALM      29.89S
HAMILTON       CLEAR     66  57  74 E7        29.89S
LAMPASAS       CLOUDY    71  68  90 CALM      29.87S
$$

TXZ095>097-106>112-122>126-135>138-148>153-164>167-280600-
EAST TEXAS

CITY           SKY/WX    TMP DP  RH WIND       PRES   REMARKS
PARIS          CLEAR     57  52  82 NE7       29.92S
SULPHUR SPRNGS CLOUDY    60  56  86 CALM      29.94R
MOUNT PLEASANT CLEAR     59  56  91 CALM      29.92S
GILMER         CLEAR     61  57  88 NW3       29.90S
MINEOLA        PTCLDY    59  57  94 E8        29.90S
TYLER          CLEAR     65  60  84 NE6       29.90R
LONGVIEW       CLEAR     65  62  90 NE5       29.89R
MARSHALL       CLEAR     63  60  91 CALM      29.92S
ATHENS         PTCLDY    63  57  82 NE6       29.88S
PALESTINE      MOCLDY    70  68  92 E5        29.89S
JACKSONVILLE   MOCLDY    70  67  89 S6        29.91R
HENDERSON      MOCLDY    65  65 100 NE3       29.90R
NACOGDOCHES    CLEAR     70  64  83 S7        29.88S
LUFKIN         MOCLDY    69  66  90 SE6       29.89S
$$

SUPPLEMENTAL OBSERVATIONS (CENTRAL)

CITY           SKY/WX    TMP DP  RH WIND       PRES   REMARKS
DENISON DAM      N/A     59  54  82 E3          N/A
CADDO GRASSLND   N/A     55  52  88 VRB1        N/A
PAT MAYSE LAKE   N/A     57  55  94 N6          N/A
GREENVILLE       N/A     57  54  88 NE2         N/A
CEDAR HILL       N/A     63  54  72 E2          N/A
ATHENS           N/A     63  57  82 NE1         N/A
LAKE LIMESTONE   N/A     70  66  88 S3          N/A
MCGREGOR         N/A     68  64  88 NE2         N/A
TEMPLE           N/A     72  68  88 SE7         N/A
$$

SUPPLEMENTAL OBSERVATIONS (WEST)

CITY           SKY/WX    TMP DP  RH WIND       PRES   REMARKS
MILLERS CREEK    N/A     61  48  63 E8          N/A
POSSUM KINGDOM   N/A     61  52  72 E6          N/A
LBJ GRASSLAND    N/A     61  54  77 NE5         N/A
GRANBURY         N/A     61  52  72 SE2         N/A
COMANCHE         N/A     63  55  77 SE8         N/A
HAMBY            N/A     63  50  63 SE10        N/A
IVIE RESERVOIR   N/A     66  54  63 E9          N/A
COLORADO BEND    N/A     70  63  78 SE6         N/A
$$

SUPPLEMENTAL OBSERVATIONS (EAST)

CITY           SKY/WX    TMP DP  RH WIND       PRES   REMARKS
CLARKSVILLE      N/A     57  52  82 VRB2        N/A
TEXARKANA        N/A     59  57  94 CALM        N/A
LINDEN           N/A     61  55  82 CALM        N/A
CADDO LAKE       N/A    N/A N/A N/A CALM        N/A
GILMER           N/A     63  57  82 VRB2        N/A
HENDERSON        N/A     66  63  88 NE3         N/A
LUFKIN           N/A     70  64  83 MISG        N/A
N SABINE NF      N/A     70  66  88 MISG        N/A
S SABINE NF      N/A     70  66  88 N1          N/A
$$

SUPPLEMENTAL OBSERVATIONS ARE A COLLECTION OF AUTOMATED INSTRUMENTS
THAT ARE MAINTAINED BY A VARIETY OF FEDERAL AND STATE AGENCIES.
CERTAIN ELEMENTS...SUCH AS HUMIDITY VALUES AND SUSTAINED WIND
SPEEDS...MAY BE APPROXIMATED.





USA.gov is the U.S. government's official web portal to all federal, state and local government web resources and services.